Weather History for CYBW - September, 2014

Change the Weather History Date:

Friday, September 19, 2014

  Actual Average Record
Temperature  
Mean Temperature 56 °F -  
Max Temperature 71 °F 52 °F 74 °F (2012)
Min Temperature 41 °F 29 °F 23 °F (1997)
Degree Days  
Heating Degree Days 9    
Growing Degree Days 6 (Base 50)    
Moisture  
Dew Point 42 °F    
Average Humidity 78    
Maximum Humidity 100    
Minimum Humidity 31    
Precipitation  
Precipitation 0.00 in - - ()
Sea Level Pressure  
Sea Level Pressure 29.81 in    
Wind  
Wind Speed 6 mph ()    
Max Wind Speed 24 mph    
Max Gust Speed 32 mph    
Visibility 6.6 miles    
Events Fog    
Averages and records for this station are not official NWS values.
T = Trace of Precipitation, MM = Missing Value Source: Averaged Metar Reports

Daily Weather History Graph

Daily Weather History Graph

Search for Another Location

Airport or City:

Trip Planner

Search our weather history database for the weather conditions in past years. The results will help you decide how hot, cold, wet, or windy it might be!

Date:

Astronomy

Sep. 19, 2014 Rise Set
Actual Time 7:19 AM MDT 7:42 PM MDT
Civil Twilight 6:45 AM MDT 8:15 PM MDT
Nautical Twilight 6:06 AM MDT 8:54 PM MDT
Astronomical Twilight 5:25 AM MDT 9:35 PM MDT
Moon 2:45 AM MDT (9/19) 5:32 PM MDT (9/19)
Length of Visible Light 13h 29m
Length of Day
12h 23m
Waning Crescent, 18% of the Moon is Illuminated
Sep 19
Waning Crescent
Sep 24
New
Oct 1
First Quarter
Oct 8
Full
Oct 15
Last Quarter

Hourly Weather History & Observations

Time (MDT) Temp. Windchill Dew Point Humidity Pressure Visibility Wind Dir Wind Speed Gust Speed Precip Events Conditions
12:00 AM 50.0 °F - 48.2 °F 94% 29.66 in 9.0 mi NW 4.6 mph - N/A   Overcast
1:00 AM 48.2 °F - 46.4 °F 93% 29.68 in 9.0 mi North 5.8 mph - N/A   Partly Cloudy
2:00 AM 50.0 °F - 46.4 °F 87% 29.69 in 9.0 mi NW 5.8 mph - N/A   Partly Cloudy
3:00 AM 44.6 °F 39.7 °F 42.8 °F 93% 29.73 in 9.0 mi NW 9.2 mph - N/A   Clear
4:00 AM 46.4 °F 43.5 °F 44.6 °F 93% 29.76 in 9.0 mi NNW 5.8 mph - N/A   Clear
5:00 AM 44.6 °F 42.2 °F 44.6 °F 100% 29.78 in 8.0 mi NW 4.6 mph - N/A   Overcast
6:00 AM 44.6 °F 42.2 °F 42.8 °F 93% 29.79 in 7.0 mi WNW 4.6 mph - N/A   Scattered Clouds
6:12 AM 42.8 °F 37.5 °F 42.8 °F 100% 29.80 in 5.0 mi WSW 9.2 mph - N/A   Mostly Cloudy
6:16 AM 44.6 °F 39.7 °F 42.8 °F 93% 29.79 in 6.0 mi West 9.2 mph - N/A   Mostly Cloudy
6:49 AM 44.6 °F 43.1 °F 42.8 °F 93% 29.80 in 5.0 mi NNW 3.5 mph - N/A   Mostly Cloudy
7:03 AM 44.6 °F - 44.6 °F 100% 29.80 in 6.0 mi Variable 2.3 mph - N/A   Mostly Cloudy
7:09 AM 44.6 °F - 42.8 °F 93% 29.80 in 5.0 mi Variable 2.3 mph - N/A   Mostly Cloudy
7:12 AM 44.6 °F - 42.8 °F 93% 29.80 in 2.2 mi Variable 2.3 mph - N/A   Mostly Cloudy
7:18 AM 42.8 °F 41.1 °F 42.8 °F 100% 29.80 in 0.8 mi WSW 3.5 mph - N/A   Partly Cloudy
7:28 AM 41.0 °F - 41.0 °F 100% 29.81 in 0.4 mi West 2.3 mph - N/A Fog Fog
7:30 AM 41.0 °F - 39.2 °F 93% 29.81 in 0.2 mi Calm Calm - N/A Fog Fog
7:42 AM 41.0 °F 39.0 °F 41.0 °F 100% 29.82 in 0.5 mi South 3.5 mph - N/A Fog Fog
7:44 AM 41.0 °F 39.0 °F 41.0 °F 100% 29.82 in 1.0 mi South 3.5 mph - N/A   Clear
7:47 AM 41.0 °F - 41.0 °F 100% 29.82 in 3.0 mi Variable 2.3 mph - N/A   Clear
7:52 AM 42.8 °F - 42.8 °F 100% 29.82 in 6.0 mi Calm Calm - N/A   Clear
8:00 AM 44.6 °F - 44.6 °F 100% 29.82 in 9.0 mi Calm Calm - N/A   Clear
9:00 AM 50.0 °F - 48.2 °F 94% 29.83 in 9.0 mi Calm Calm - N/A   Scattered Clouds
10:00 AM 62.6 °F - 48.2 °F 59% 29.80 in 9.0 mi West 9.2 mph - N/A   Clear
11:51 AM 68.0 °F - 39.2 °F 35% 29.80 in 9.0 mi West 20.7 mph - N/A   Clear
12:00 PM 68.0 °F - 41.0 °F 37% 29.81 in 9.0 mi West 18.4 mph 26.5 mph N/A   Clear
2:00 PM 68.0 °F - 39.2 °F 35% 29.82 in 9.0 mi West 21.9 mph 28.8 mph N/A   Overcast
3:00 PM 71.6 °F - 39.2 °F 31% 29.82 in 9.0 mi WNW 17.3 mph - N/A   Overcast
4:00 PM 71.6 °F - 39.2 °F 31% 29.82 in 9.0 mi West 24.2 mph 29.9 mph N/A   Mostly Cloudy
6:00 PM 66.2 °F - 39.2 °F 37% 29.87 in 9.0 mi West 20.7 mph 32.2 mph N/A   Clear
7:00 PM 62.6 °F - 39.2 °F 42% 29.89 in 9.0 mi West 20.7 mph - N/A   Clear
8:00 PM 59.0 °F - 35.6 °F 42% 29.92 in 9.0 mi West 20.7 mph 27.6 mph N/A   Clear
9:00 PM 51.8 °F - 35.6 °F 54% 29.97 in 9.0 mi West 13.8 mph - N/A   Clear
10:00 PM 48.2 °F - 35.6 °F 62% 29.97 in 9.0 mi WNW 5.8 mph - N/A   Clear